Location: Grust
(42.8833°N, 0.0333°W)
Time: 20:09:16
(UTC+00:00)

Cosmos 1726 Rocket - Pass Details

Date: 25 October 2020
Orbit: 604 x 628 km, 82.5° (Epoch: 22 November)

Event Time Altitude Azimuth Distance (km) Brightness Sun altitude
Rises 17:53:51 0° 181° (S) 2,849 7.1 -10.2°
Reaches altitude 10° 17:56:03 10° 179° (S) 1,953 6.2 -10.6°
Maximum altitude 18:00:21 72° 96° (E) 647 3.4 -11.4°
Drops below altitude 10° 18:04:43 10° 12° (NNE) 1,983 6.0 -12.2°
Sets 18:06:58 0° 11° (N) 2,897 6.8 -12.6°
